[[{"header":{"parameterUnit":"m.s-1","parameterCategory":1,"la1":30.2991,"la2":30.254,"lo1":-89.0895,"lo2":-89.0444,"dy":0.0017,"dx":0.0017,"nx":28,"ny":28,"refTime":"2023-04-26T15:00:00:Z","depth":0,"parameterNumber":2,"parameterNumberName":"U-component_of_WINDS"},"data":[0,0,0,0,0,0,0,0,0,0,0,0,0,0,0,0,0,0,0,0,0,0,0,0,0,0,0,0,0,0,0,0,0,0,0,0,0,0,0,0,0,0,0,0,0,0,0,0,0,0,0,0,0,0,0,0,0,0,-4.1685,-4.1686,0,-4.1751,-4.1752,-4.1753,-4.1695,-4.1693,-4.1691,-4.1688,-4.1753,-4.1757,-4.1761,0,0,0,0,0,0,0,0,0,0,0,0,0,-4.1509,-4.1512,-4.1685,-4.1686,-4.1687,-4.1751,-4.1752,-4.1753,-4.1696,-4.1693,-4.169,-4.1687,-4.1752,-4.1757,-4.1761,0,0,0,0,0,0,0,0,0,0,0,0,0,-4.1581,-4.1513,-4.1685,-4.1666,-4.1665,-4.1751,-4.1752,-4.1753,-4.1696,-4.1693,-4.1689,-4.1686,-4.1751,-4.1756,-4.1762,-4.1869,0,0,-4.178,-4.1783,0,0,0,0,0,0,0,0,-4.1577,-4.1588,-4.1668,-4.1668,-4.1667,-4.1711,-4.1714,-4.1792,-4.1697,-4.1684,-4.1688,-4.1684,-4.1742,-4.1748,-4.1769,-4.1872,-4.1875,-4.1781,-4.1784,-4.1787,-4.1788,0,0,0,0,0,0,0,-4.1572,-4.1584,-4.1711,-4.1669,-4.1669,-4.1654,-4.166,-4.1728,-4.1732,-4.1685,-4.1681,-4.169,-4.1741,-4.1763,-4.177,-4.1876,-4.178,-4.1786,-4.1789,-4.1792,-4.2071,-4.2075,0,0,0,0,0,0,-4.1569,-4.1581,-4.1709,-4.1713,-4.1612,-4.166,-4.1667,-4.1701,-4.1731,-4.1733,-4.1693,-4.1687,-4.1755,-4.1763,-4.1772,-4.1899,-4.1787,-4.1792,-4.1796,-4.2068,-4.2072,-4.2076,0,0,0,0,0,0,-4.1566,-4.1581,-4.1707,-4.1646,-4.1661,-4.1667,-4.1705,-4.1704,-4.1726,-4.1737,-4.1737,-4.1715,-4.1752,-4.1763,-4.1846,-4.19,-4.1795,-4.18,-4.2063,-4.2069,-4.2074,-4.2154,0,0,0,0,0,0,-4.1561,-4.158,-4.1621,-4.1647,-4.1664,-4.178,-4.1708,-4.1708,-4.1736,-4.1729,-4.1758,-4.1759,-4.175,-4.1837,-4.1852,-4.1906,-4.1805,-4.2058,-4.2066,-4.2072,-4.2146,-4.2162,-4.2175,0,0,0,0,0,-4.1555,-4.1641,-4.1624,-4.164,-4.1716,-4.1783,-4.1793,-4.1782,-4.1741,-4.1782,-4.179,-4.1758,-4.1893,-4.1846,-4.1862,-4.1919,-4.2054,-4.2063,-4.2072,-4.214,-4.2159,-4.2175,0,0,0,0,0,0,-4.1619,-4.1643,-4.1625,-4.1722,-4.1751,-4.1773,-4.1824,-4.1802,-4.1843,-4.1834,-4.1818,-4.1825,-4.1912,-4.1924,-4.1872,-4.2025,-4.1967,-4.1979,-4.2013,-4.2031,-4.2045,-4.2039,-4.181,0,0,0,0,0,-4.1645,-4.1699,-4.1717,-4.18,-4.1816,-4.1818,-4.1847,-4.1837,-4.1866,-4.1877,-4.1891,-4.192,-4.1969,-4.2001,-4.2046,-4.2149,-4.2154,-4.2196,-4.2211,-4.2222,-4.2232,-4.2287,-4.2306,-4.2105,-4.2105,-4.2105,0,0,-4.1698,-4.1718,-4.1753,-4.1814,-4.1835,-4.189,-4.1829,-4.189,-4.193,-4.1886,-4.1965,-4.1976,-4.2008,-4.21,-4.2142,-4.2113,-4.2289,-4.2233,-4.2243,-4.2246,-4.2298,-4.2317,-4.2334,-4.2111,-4.211,-4.2109,0,0,-4.1823,-4.1844,-4.1916,-4.1939,-4.1973,-4.1974,-4.1992,-4.2018,-4.2024,-4.2103,-4.2071,-4.212,-4.2204,-4.2227,-4.2251,-4.2387,-4.2359,-4.2402,-4.2476,-4.253,-4.2545,-4.2559,-4.2607,-4.2624,-4.2413,-4.2413,-4.2413,0,-4.1884,-4.1967,-4.1955,-4.2019,-4.2047,-4.2012,-4.2084,-4.2107,-4.2154,-4.2173,-4.2141,-4.2247,-4.2265,-4.2363,-4.2397,-4.2417,-4.2436,-4.2398,-4.2544,-4.2558,-4.2571,-4.2616,-4.2634,-4.2418,-4.2418,-4.2417,-4.2417,0,-4.204,-4.2098,-4.2152,-4.2199,-4.2233,-4.2301,-4.23,-4.2336,-4.2323,-4.2327,-4.2408,-4.243,-4.2479,-4.2502,-4.249,-4.2599,-4.258,-4.2547,-4.2487,-4.2595,-4.2637,-4.2654,-4.2425,-4.2423,-4.2422,-4.2421,0,0,-4.2204,-4.2246,-4.2266,-4.2287,-4.2323,-4.2367,-4.2433,-4.2483,-4.2513,-4.2548,-4.2602,-4.2676,-4.2645,-4.2672,-4.2662,-4.271,-4.2815,-4.267,-4.2671,-4.2695,-4.2936,-4.2959,-4.2979,-4.2798,-4.2802,-4.2804,-4.2932,0,-4.2329,-4.2445,-4.2438,-4.2547,-4.26,-4.2568,-4.2626,-4.2654,-4.2661,-4.2707,-4.2714,-4.2766,-4.2723,-4.2738,-4.2784,-4.2793,-4.2863,-4.2784,-4.2848,-4.285,-4.2838,-4.3001,-4.3026,-4.3146,-4.2949,-4.2952,-4.2954,0,-4.249,-4.2531,-4.2645,-4.2673,-4.2695,-4.2747,-4.2792,-4.2837,-4.2868,-4.287,-4.2901,-4.2884,-4.2951,-4.2892,-4.2984,-4.293,-4.2956,-4.2965,-4.2969,-4.2973,-4.2907,-4.3007,-4.3184,-4.3201,-4.298,-4.2978,-4.2976,0,-4.2597,-4.268,-4.2759,-4.2779,-4.2814,-4.2851,-4.2868,-4.2896,-4.2926,-4.2966,-4.2986,-4.3032,-4.3058,-4.3094,-4.309,-4.3048,-4.3183,-4.3124,-4.3185,-4.3185,-4.3212,-4.321,-4.3393,-4.3233,-4.3233,-4.3233,-4.3232,0,-4.2735,-4.2806,-4.2808,-4.2856,-4.2935,-4.2927,-4.3004,-4.3017,-4.3042,-4.3092,-4.3069,-4.3116,-4.3109,-4.3156,-4.3154,-4.3229,-4.3241,-4.3244,-4.3242,-4.3245,-4.3244,-4.326,-4.3251,-4.3237,-4.3236,-4.3235,-4.3235,0,-4.2867,-4.2871,-4.2955,-4.2982,-4.2991,-4.3048,-4.3071,-4.3117,-4.3123,-4.3186,-4.3201,-4.3209,-4.3264,-4.3265,-4.3327,-4.3325,-4.3418,-4.3407,-4.3407,-4.3404,-4.3464,-4.3458,-4.3662,-4.3688,-4.3513,-4.3515,-4.3516,0,-4.2954,-4.3008,-4.3042,-4.3074,-4.3093,-4.3145,-4.3177,-4.3172,-4.3205,-4.3246,-4.3287,-4.334,-4.3381,-4.3471,-4.3482,-4.353,-4.3519,-4.3588,-4.3526,-4.3527,-4.3518,-4.3514,-4.3519,-4.3599,-4.3601,-4.3602,-4.3604,0,-4.3108,-4.3108,-4.3154,-4.3202,-4.3241,-4.3278,-4.3312,-4.334,-4.3338,-4.3377,-4.3434,-4.3466,-4.3531,-4.3583,-4.363,-4.3646,-4.3625,-4.3624,-4.364,-4.3642,-4.3639,-4.364,-4.3438,-4.3618,-4.3616,-4.3615,-4.3615,-4.3614,-4.3219,-4.3265,-4.3297,-4.3349,-4.3375,-4.3408,-4.3453,-4.3465,-4.3512,-4.3564,-4.3559,-4.3621,-4.3652,-4.3713,-4.3733,-4.3782,-4.3758,-4.3782,-4.3787,-4.3793,-4.3799,-4.3634,-4.3791,-4.379,-4.379,-4.379,-4.3789,0,-4.337,-4.3389,-4.3438,-4.3488,-4.3529,-4.3508,-4.3545,-4.3581,-4.3636,-4.3667,-4.371,-4.3775,-4.3826,-4.3843,-4.3892,-4.3928,-4.3919,-4.3941,-4.3937,-4.3941,-4.3818,-4.3798,-4.3947,-4.3947,-4.3947,-4.3947,-4.3947,-4.3947,-4.3454,-4.3531,-4.3535,-4.3625,-4.3643,-4.3705,-4.3728,-4.3759,-4.3783,-4.3857,-4.39,-4.3911,-4.3937,-4.3988,-4.4034,-4.4038,-4.4056,-4.4082,-4.4081,-4.3966,-4.395,-4.3934,-4.3916,-4.4087,-4.4087,-4.42,-4.4201,-4.4202]},{"header":{"parameterUnit":"m.s-1","parameterCategory":1,"la1":30.2991,"la2":30.254,"lo1":-89.0895,"lo2":-89.0444,"dy":0.0017,"dx":0.0017,"nx":28,"ny":28,"refTime":"2023-04-26T15:00:00:Z","depth":0,"parameterNumber":3,"parameterNumberName":"V-component_of_WINDS"},"data":[0,0,0,0,0,0,0,0,0,0,0,0,0,0,0,0,0,0,0,0,0,0,0,0,0,0,0,0,0,0,0,0,0,0,0,0,0,0,0,0,0,0,0,0,0,0,0,0,0,0,0,0,0,0,0,0,0,0,2.1515,2.1515,0,2.1592,2.1593,2.1594,2.1585,2.1584,2.1583,2.1582,2.1659,2.1662,2.1666,0,0,0,0,0,0,0,0,0,0,0,0,0,2.1359,2.1362,2.1514,2.1515,2.1516,2.1592,2.1593,2.1594,2.1586,2.1584,2.1583,2.1581,2.1658,2.1662,2.1666,0,0,0,0,0,0,0,0,0,0,0,0,0,2.143,2.1363,2.1514,2.1521,2.1523,2.1592,2.1593,2.1594,2.1586,2.1584,2.1582,2.1581,2.1657,2.1662,2.1666,2.1733,0,0,2.1681,2.1683,0,0,0,0,0,0,0,0,2.1426,2.1436,2.1519,2.1521,2.1523,2.1577,2.1567,2.1641,2.1586,2.1562,2.1582,2.158,2.1633,2.164,2.1659,2.1736,2.174,2.1682,2.1684,2.1687,2.1688,0,0,0,0,0,0,0,2.1421,2.1433,2.1545,2.1521,2.1523,2.1521,2.1529,2.1581,2.1607,2.1564,2.1563,2.1573,2.1634,2.1654,2.166,2.1741,2.1681,2.1686,2.1689,2.1691,2.188,2.1882,0,0,0,0,0,0,2.1415,2.1429,2.1543,2.1547,2.1469,2.1525,2.1534,2.1562,2.1606,2.1611,2.1574,2.1572,2.1647,2.1655,2.1663,2.1746,2.1686,2.1691,2.1694,2.1878,2.188,2.1883,0,0,0,0,0,0,2.1412,2.1425,2.1539,2.1488,2.1502,2.153,2.1561,2.1564,2.1584,2.1614,2.1619,2.159,2.1645,2.1656,2.1716,2.1748,2.1693,2.1698,2.1875,2.1878,2.1881,2.191,0,0,0,0,0,0,2.1407,2.1424,2.1449,2.1489,2.1505,2.1592,2.1562,2.1567,2.1593,2.1591,2.163,2.1635,2.1645,2.1709,2.1721,2.1754,2.1701,2.1872,2.1877,2.188,2.1907,2.1914,2.192,0,0,0,0,0,2.1402,2.1453,2.1451,2.1464,2.1538,2.1593,2.1603,2.1614,2.1595,2.1621,2.1641,2.1634,2.1743,2.1715,2.1729,2.1763,2.187,2.1875,2.188,2.1904,2.1913,2.192,0,0,0,0,0,0,2.1416,2.1459,2.1456,2.1522,2.1554,2.1592,2.1625,2.1623,2.166,2.1657,2.1668,2.1677,2.1738,2.1756,2.1725,2.1831,2.1804,2.1812,2.1817,2.1826,2.1833,2.1828,2.1705,0,0,0,0,0,2.1427,2.1469,2.1504,2.1559,2.1575,2.1597,2.1622,2.1628,2.1662,2.1675,2.1699,2.1731,2.1773,2.18,2.184,2.1909,2.1919,2.1939,2.1946,2.1952,2.1959,2.1999,2.2009,2.1898,2.1898,2.1898,0,0,2.145,2.1478,2.1504,2.1562,2.1588,2.1632,2.1609,2.1655,2.1688,2.1682,2.1741,2.176,2.1797,2.1862,2.1892,2.1879,2.1992,2.1958,2.1962,2.1966,2.2005,2.2015,2.2025,2.1902,2.1901,2.1901,0,0,2.1514,2.1539,2.1589,2.1616,2.1656,2.1671,2.1682,2.1721,2.1734,2.1793,2.179,2.1829,2.19,2.1928,2.1951,2.2028,2.2024,2.2041,2.2077,2.2116,2.2125,2.2133,2.2162,2.2173,2.2047,2.2047,2.2047,0,2.1538,2.1604,2.1615,2.1663,2.169,2.1687,2.1738,2.1763,2.1814,2.1832,2.1817,2.1908,2.1933,2.2006,2.2025,2.2043,2.2058,2.2037,2.2123,2.2131,2.2138,2.2167,2.2178,2.2049,2.2049,2.2049,2.2049,0,2.1632,2.1678,2.1713,2.1764,2.1794,2.1843,2.1862,2.1891,2.1895,2.1912,2.1973,2.2003,2.205,2.2068,2.2071,2.2142,2.2133,2.212,2.2093,2.2151,2.2178,2.2188,2.2052,2.2051,2.2051,2.205,0,0,2.1707,2.1764,2.1777,2.1801,2.1846,2.1882,2.1931,2.1978,2.2004,2.2039,2.2082,2.2144,2.2133,2.216,2.2166,2.22,2.2262,2.2183,2.2184,2.2199,2.2345,2.2355,2.2368,2.2259,2.2261,2.2263,2.2342,0,2.1777,2.1866,2.1879,2.1957,2.2001,2.2,2.2043,2.2076,2.2093,2.2132,2.2151,2.2195,2.2176,2.2193,2.2226,2.2247,2.2292,2.2241,2.23,2.2302,2.2292,2.2381,2.2392,2.2466,2.2353,2.2354,2.2356,0,2.1871,2.1911,2.1995,2.2035,2.2054,2.2093,2.2139,2.2176,2.2213,2.2223,2.2254,2.2257,2.2309,2.2279,2.2352,2.2318,2.2342,2.2356,2.236,2.2367,2.2333,2.2392,2.2489,2.2501,2.2372,2.2371,2.2369,0,2.1921,2.1995,2.2055,2.2075,2.2123,2.2151,2.2173,2.2208,2.2236,2.2276,2.2295,2.2339,2.2364,2.2398,2.2414,2.239,2.2486,2.2457,2.2497,2.2497,2.2518,2.2517,2.2623,2.2531,2.2531,2.2531,2.2531,0,2.1999,2.2051,2.2078,2.2115,2.2174,2.2187,2.2245,2.2265,2.2297,2.2338,2.2339,2.2378,2.2395,2.2437,2.2448,2.2508,2.2519,2.2529,2.2532,2.253,2.2529,2.2547,2.2543,2.2534,2.2533,2.2533,2.2532,0,2.2065,2.2085,2.2151,2.2192,2.2204,2.2245,2.228,2.2317,2.2334,2.2386,2.24,2.2426,2.2476,2.2494,2.2553,2.2562,2.2632,2.2629,2.262,2.2621,2.2661,2.2658,2.2783,2.2801,2.2696,2.2697,2.2698,0,2.2115,2.2155,2.2201,2.2229,2.2252,2.2297,2.2327,2.2342,2.2373,2.2419,2.245,2.25,2.254,2.2619,2.2644,2.269,2.269,2.2731,2.2697,2.2695,2.2694,2.2692,2.2697,2.2738,2.2739,2.274,2.274,0,2.2201,2.221,2.2253,2.23,2.2335,2.2373,2.2409,2.2432,2.2453,2.2488,2.2539,2.257,2.2632,2.2682,2.273,2.2752,2.2751,2.2751,2.2763,2.2762,2.2756,2.2762,2.2639,2.2748,2.2747,2.2747,2.2746,2.2746,2.2262,2.2299,2.2337,2.2386,2.2415,2.2449,2.2487,2.2509,2.2552,2.2605,2.2611,2.2666,2.2704,2.2768,2.2793,2.2837,2.2826,2.2842,2.2847,2.2852,2.2856,2.2748,2.2845,2.2845,2.2845,2.2844,2.2844,0,2.2351,2.2376,2.242,2.2472,2.2511,2.2506,2.2547,2.2579,2.2628,2.2664,2.2704,2.2764,2.2813,2.2842,2.2891,2.2921,2.2922,2.2933,2.2932,2.2938,2.2862,2.2847,2.2932,2.2932,2.2932,2.2932,2.2932,2.2932,2.2402,2.2464,2.2478,2.2555,2.258,2.2635,2.2659,2.2691,2.272,2.2787,2.2828,2.2847,2.2881,2.2933,2.2977,2.2985,2.3004,2.3017,2.3024,2.2952,2.2943,2.2934,2.2921,2.302,2.302,2.3097,2.3097,2.3098]}]]